Location: C�an Torras
(41.5052°N, 1.9280°E)
Time: 08:02:39
(UTC+00:00)

ISS - Visible Passes

Search period start: 23 April 2021 00:00
Search period end: 03 May 2021 00:00
Orbit: 418 x 421 km, 51.6° (Epoch: 23 April)

Date Brightness Start Highest point End Pass type
(mag) Time Alt. Az. Time Alt. Az. Time Alt. Az.
23 Apr -1.5 04:31:39 10° S 04:34:14 20° SE 04:36:48 10° E visible
24 Apr -1.0 03:45:38 10° SSE 03:47:02 12° SE 03:48:27 10° ESE visible
26 Apr -2.5 03:46:24 15° SSW 03:48:45 34° SE 03:51:52 10° ENE visible
27 Apr -1.9 03:00:59 20° SSE 03:01:30 21° SE 03:04:06 10° E visible
28 Apr -0.8 02:15:30 11° ESE 02:15:30 11° ESE 02:15:46 10° ESE visible
28 Apr -3.8 03:48:28 20° WSW 03:50:41 79° NW 03:54:04 10° NE visible
29 Apr -3.6 03:02:53 55° S 03:03:18 61° SE 03:06:39 10° ENE visible
30 Apr -1.8 02:17:15 25° E 02:17:15 25° E 02:19:06 10° ENE visible
30 Apr -2.5 03:50:13 13° W 03:52:48 33° NNW 03:55:56 10° NE visible
01 May -3.2 03:04:31 39° WNW 03:05:19 48° NNW 03:08:37 10° NE visible
02 May -2.7 02:18:47 45° NE 02:18:47 45° NE 02:21:15 10° NE visible
02 May -1.6 03:52:33 10° WNW 03:55:07 20° NNW 03:57:41 10° NNE visible
